| time (UTC) | temp F | wind direction | speed MPH | gust MPH | rain 1hr in | rain 24hr in | rain mn in | humidity % | barometer mb |
| 20260831014557 | 87 | 110 | 3.0 | 6.0 | 0.00 | 0.00 | 0.00 | 53 | 1013.4 |
| 20260831014035 | 88 | 124 | 3.0 | 9.0 | 0.00 | 0.00 | 0.00 | 52 | 1013.3 |
| 20260831013534 | 88 | 128 | 3.0 | 9.0 | 0.00 | 0.00 | 0.00 | 51 | 1013.2 |
| 20260831013104 | 89 | 143 | 4.0 | 9.0 | 0.00 | 0.00 | 0.00 | 51 | 1013.2 |
| 20260831012537 | 90 | 140 | 1.0 | 2.0 | 0.00 | 0.00 | 0.00 | 50 | 1013.1 |
| 20260831012036 | 90 | 140 | 1.0 | 2.0 | 0.00 | 0.00 | 0.00 | 49 | 1013.0 |
| 20260831011604 | 90 | 140 | 1.0 | 2.0 | 0.00 | 0.00 | 0.00 | 50 | 1013.1 |
| 20260831011037 | 91 | 140 | 1.0 | 2.0 | 0.00 | 0.00 | 0.00 | 48 | 1013.0 |
| 20260831010533 | 91 | 140 | 1.0 | 2.0 | 0.00 | 0.00 | 0.00 | 48 | 1013.0 |
| 20260831010059 | 92 | 140 | 1.0 | 3.0 | 0.00 | 0.00 | 0.00 | 46 | 1012.9 |
| 20260831005534 | 92 | 140 | 1.0 | 4.0 | 0.00 | 0.00 | 0.00 | 45 | 1012.9 |
| 20260831005033 | 92 | 140 | 2.0 | 5.0 | 0.00 | 0.00 | 0.00 | 44 | 1012.8 |
| 20260831004557 | 93 | 116 | 1.0 | 6.0 | 0.00 | 0.00 | 0.00 | 44 | 1012.8 |
| 20260831004037 | 93 | 116 | 2.0 | 11.0 | 0.00 | 0.00 | 0.00 | 44 | 1012.9 |
| 20260831003533 | 93 | 139 | 5.0 | 11.0 | 0.00 | 0.00 | 0.00 | 43 | 1012.9 |
| 20260831003104 | 93 | 89 | 6.0 | 11.0 | 0.00 | 0.00 | 0.00 | 44 | 1012.8 |
| 20260831002534 | 93 | 101 | 5.0 | 13.0 | 0.00 | 0.00 | 0.00 | 43 | 1012.8 |
| 20260831002034 | 93 | 135 | 7.0 | 13.0 | 0.00 | 0.00 | 0.00 | 43 | 1012.8 |
| 20260831001608 | 93 | 137 | 5.0 | 11.0 | 0.00 | 0.00 | 0.00 | 43 | 1012.7 |
| 20260831001034 | 93 | 154 | 6.0 | 11.0 | 0.00 | 0.00 | 0.00 | 43 | 1012.7 |
| 20260831000534 | 94 | 153 | 4.0 | 13.0 | 0.00 | 0.00 | 0.00 | 42 | 1012.7 |
| 20260830235539 | 94 | 161 | 4.0 | 12.0 | 0.00 | 0.00 | 0.00 | 43 | 1012.8 |
| 20260830235039 | 94 | 101 | 5.0 | 12.0 | 0.00 | 0.00 | 0.00 | 42 | 1012.8 |
| 20260830234607 | 95 | 113 | 7.0 | 16.0 | 0.00 | 0.00 | 0.00 | 42 | 1012.9 |
| 20260830234034 | 95 | 108 | 7.0 | 17.0 | 0.00 | 0.00 | 0.00 | 41 | 1013.0 |
| 20260830233539 | 95 | 128 | 8.0 | 17.0 | 0.00 | 0.00 | 0.00 | 41 | 1012.9 |
| 20260830233058 | 95 | 97 | 7.0 | 13.0 | 0.00 | 0.00 | 0.00 | 42 | 1012.9 |
| 20260830232535 | 95 | 87 | 5.0 | 17.0 | 0.00 | 0.00 | 0.00 | 42 | 1012.8 |
| 20260830232034 | 96 | 91 | 8.0 | 18.0 | 0.00 | 0.00 | 0.00 | 40 | 1012.8 |
| 20260830231603 | 96 | 93 | 10.0 | 18.0 | 0.00 | 0.00 | 0.00 | 40 | 1012.9 |
| 20260830231034 | 96 | 145 | 7.0 | 18.0 | 0.00 | 0.00 | 0.00 | 40 | 1012.7 |
| 20260830230533 | 96 | 106 | 6.0 | 14.0 | 0.00 | 0.00 | 0.00 | 39 | 1012.8 |
| 20260830225534 | 97 | 93 | 8.0 | 14.0 | 0.00 | 0.00 | 0.00 | 38 | 1012.8 |
| 20260830225033 | 96 | 102 | 7.0 | 14.0 | 0.00 | 0.00 | 0.00 | 39 | 1012.9 |
| 20260830224557 | 97 | 113 | 8.0 | 16.0 | 0.00 | 0.00 | 0.00 | 40 | 1012.9 |
| 20260830224034 | 97 | 109 | 5.0 | 16.0 | 0.00 | 0.00 | 0.00 | 39 | 1012.9 |
| 20260830223537 | 97 | 103 | 8.0 | 16.0 | 0.00 | 0.00 | 0.00 | 37 | 1013.0 |
| 20260830223059 | 98 | 111 | 7.0 | 16.0 | 0.00 | 0.00 | 0.00 | 39 | 1013.0 |
| 20260830222538 | 98 | 81 | 6.0 | 18.0 | 0.00 | 0.00 | 0.00 | 39 | 1013.0 |
| 20260830222038 | 98 | 153 | 8.0 | 18.0 | 0.00 | 0.00 | 0.00 | 39 | 1013.0 |
| 20260830221557 | 98 | 144 | 10.0 | 18.0 | 0.00 | 0.00 | 0.00 | 39 | 1013.1 |
| 20260830221036 | 99 | 122 | 8.0 | 18.0 | 0.00 | 0.00 | 0.00 | 38 | 1013.2 |
| 20260830220533 | 98 | 128 | 4.0 | 17.0 | 0.00 | 0.00 | 0.00 | 38 | 1013.1 |
| 20260830220101 | 98 | 128 | 8.0 | 17.0 | 0.00 | 0.00 | 0.00 | 38 | 1013.1 |
| 20260830215535 | 98 | 174 | 4.0 | 18.0 | 0.00 | 0.00 | 0.00 | 37 | 1013.2 |
| 20260830215033 | 98 | 126 | 6.0 | 18.0 | 0.00 | 0.00 | 0.00 | 37 | 1013.3 |
| 20260830214626 | 99 | 135 | 10.0 | 18.0 | 0.00 | 0.00 | 0.00 | 37 | 1013.2 |
| 20260830214033 | 99 | 174 | 8.0 | 17.0 | 0.00 | 0.00 | 0.00 | 36 | 1013.3 |
| 20260830213535 | 99 | 130 | 8.0 | 16.0 | 0.00 | 0.00 | 0.00 | 37 | 1013.5 |
| 20260830213054 | 99 | 144 | 7.0 | 15.0 | 0.00 | 0.00 | 0.00 | 39 | 1013.4 |
| 20260830212537 | 98 | 135 | 6.0 | 14.0 | 0.00 | 0.00 | 0.00 | 40 | 1013.5 |
| 20260830212033 | 98 | 99 | 7.0 | 16.0 | 0.00 | 0.00 | 0.00 | 39 | 1013.5 |
| 20260830211601 | 98 | 157 | 8.0 | 16.0 | 0.00 | 0.00 | 0.00 | 40 | 1013.6 |
| 20260830211035 | 98 | 155 | 6.0 | 17.0 | 0.00 | 0.00 | 0.00 | 39 | 1013.7 |
| 20260830210534 | 98 | 156 | 7.0 | 18.0 | 0.00 | 0.00 | 0.00 | 42 | 1013.9 |
| 20260830210059 | 98 | 113 | 9.0 | 18.0 | 0.00 | 0.00 | 0.00 | 39 | 1013.9 |
| 20260830205532 | 97 | 124 | 8.0 | 18.0 | 0.00 | 0.00 | 0.00 | 40 | 1014.0 |
| 20260830205033 | 96 | 70 | 8.0 | 18.0 | 0.00 | 0.00 | 0.00 | 40 | 1014.1 |
| 20260830204559 | 98 | 137 | 5.0 | 15.0 | 0.00 | 0.00 | 0.00 | 41 | 1014.2 |
| 20260830204035 | 98 | 174 | 9.0 | 15.0 | 0.00 | 0.00 | 0.00 | 40 | 1014.2 |
| 20260830203533 | 98 | 187 | 5.0 | 17.0 | 0.00 | 0.00 | 0.00 | 40 | 1014.4 |
| 20260830203056 | 98 | 149 | 7.0 | 19.0 | 0.00 | 0.00 | 0.00 | 39 | 1014.6 |
| 20260830202533 | 99 | 150 | 12.0 | 19.0 | 0.00 | 0.00 | 0.00 | 39 | 1014.7 |
| 20260830202033 | 99 | 70 | 7.0 | 17.0 | 0.00 | 0.00 | 0.00 | 42 | 1014.6 |
| 20260830201602 | 97 | 112 | 7.0 | 17.0 | 0.00 | 0.00 | 0.00 | 44 | 1014.7 |
| 20260830201033 | 97 | 165 | 6.0 | 15.0 | 0.00 | 0.00 | 0.00 | 41 | 1014.9 |
| 20260830200535 | 97 | 149 | 7.0 | 15.0 | 0.00 | 0.00 | 0.00 | 40 | 1014.9 |
| 20260830200106 | 98 | 100 | 10.0 | 15.0 | 0.00 | 0.00 | 0.00 | 42 | 1015.0 |
| 20260830195535 | 98 | 135 | 7.0 | 13.0 | 0.00 | 0.00 | 0.00 | 43 | 1015.1 |
| 20260830195033 | 98 | 139 | 6.0 | 19.0 | 0.00 | 0.00 | 0.00 | 42 | 1015.2 |
| 20260830194604 | 97 | 130 | 3.0 | 19.0 | 0.00 | 0.00 | 0.00 | 41 | 1015.3 |
| 20260830194034 | 98 | 135 | 11.0 | 19.0 | 0.00 | 0.00 | 0.00 | 41 | 1015.5 |
| 20260830193532 | 96 | 97 | 5.0 | 20.0 | 0.00 | 0.00 | 0.00 | 44 | 1015.3 |
| 20260830193125 | 97 | 134 | 10.0 | 20.0 | 0.00 | 0.00 | 0.00 | 42 | 1015.5 |
| 20260830192533 | 97 | 138 | 7.0 | 18.0 | 0.00 | 0.00 | 0.00 | 42 | 1015.6 |
| 20260830192032 | 97 | 94 | 8.0 | 14.0 | 0.00 | 0.00 | 0.00 | 44 | 1015.6 |
| 20260830191600 | 97 | 84 | 9.0 | 14.0 | 0.00 | 0.00 | 0.00 | 43 | 1015.8 |
| 20260830191035 | 97 | 93 | 8.0 | 14.0 | 0.00 | 0.00 | 0.00 | 43 | 1015.8 |
| 20260830190535 | 95 | 114 | 4.0 | 16.0 | 0.00 | 0.00 | 0.00 | 49 | 1015.8 |
| 20260830190105 | 96 | 172 | 8.0 | 20.0 | 0.00 | 0.00 | 0.00 | 44 | 1016.0 |
| 20260830185535 | 98 | 137 | 9.0 | 20.0 | 0.00 | 0.00 | 0.00 | 43 | 1016.0 |
| 20260830185032 | 98 | 93 | 4.0 | 18.0 | 0.00 | 0.00 | 0.00 | 42 | 1016.0 |
| 20260830184551 | 97 | 128 | 11.0 | 18.0 | 0.00 | 0.00 | 0.00 | 43 | 1016.2 |
| 20260830184037 | 97 | 114 | 7.0 | 16.0 | 0.00 | 0.00 | 0.00 | 46 | 1016.2 |
| 20260830183533 | 96 | 164 | 4.0 | 15.0 | 0.00 | 0.00 | 0.00 | 47 | 1016.3 |
| 20260830183100 | 95 | 103 | 9.0 | 15.0 | 0.00 | 0.00 | 0.00 | 49 | 1016.4 |
| 20260830182535 | 95 | 68 | 3.0 | 11.0 | 0.00 | 0.00 | 0.00 | 46 | 1016.5 |
| 20260830182035 | 95 | 155 | 5.0 | 15.0 | 0.00 | 0.00 | 0.00 | 47 | 1016.5 |
| 20260830181602 | 96 | 142 | 8.0 | 15.0 | 0.00 | 0.00 | 0.00 | 46 | 1016.6 |
| 20260830181033 | 96 | 185 | 6.0 | 15.0 | 0.00 | 0.00 | 0.00 | 47 | 1016.7 |
| 20260830180533 | 94 | 147 | 5.0 | 16.0 | 0.00 | 0.00 | 0.00 | 51 | 1016.8 |
| 20260830175533 | 92 | 212 | 5.0 | 13.0 | 0.00 | 0.00 | 0.00 | 50 | 1017.0 |
| 20260830175033 | 93 | 83 | 7.0 | 14.0 | 0.00 | 0.00 | 0.00 | 50 | 1017.1 |
| 20260830174616 | 92 | 109 | 4.0 | 14.0 | 0.00 | 0.00 | 0.00 | 49 | 1017.1 |
| 20260830174033 | 91 | 176 | 4.0 | 10.0 | 0.00 | 0.00 | 0.00 | 53 | 1017.1 |
| 20260830173533 | 91 | 210 | 2.0 | 13.0 | 0.00 | 0.00 | 0.00 | 52 | 1017.3 |
| 20260830173115 | 95 | 64 | 8.0 | 17.0 | 0.00 | 0.00 | 0.00 | 50 | 1017.4 |
| 20260830172534 | 94 | 126 | 9.0 | 17.0 | 0.00 | 0.00 | 0.00 | 50 | 1017.3 |
| 20260830172033 | 93 | 93 | 6.0 | 15.0 | 0.00 | 0.00 | 0.00 | 54 | 1017.3 |
| 20260830171604 | 91 | 94 | 4.0 | 15.0 | 0.00 | 0.00 | 0.00 | 55 | 1017.3 |
| 20260830171035 | 91 | 150 | 1.0 | 13.0 | 0.00 | 0.00 | 0.00 | 54 | 1017.4 |
| 20260830170534 | 92 | 144 | 9.0 | 13.0 | 0.00 | 0.00 | 0.00 | 54 | 1017.5 |
| 20260830170059 | 91 | 93 | 5.0 | 13.0 | 0.00 | 0.00 | 0.00 | 55 | 1017.5 |
| 20260830165536 | 91 | 156 | 8.0 | 12.0 | 0.00 | 0.00 | 0.00 | 56 | 1017.6 |
| 20260830165033 | 92 | 141 | 5.0 | 10.0 | 0.00 | 0.00 | 0.00 | 57 | 1017.6 |
| 20260830164553 | 90 | 234 | 3.0 | 10.0 | 0.00 | 0.00 | 0.00 | 59 | 1017.7 |
| 20260830164035 | 89 | 149 | 2.0 | 9.0 | 0.00 | 0.00 | 0.00 | 59 | 1017.7 |
| 20260830163533 | 89 | 153 | 3.0 | 10.0 | 0.00 | 0.00 | 0.00 | 60 | 1017.8 |
| 20260830163102 | 89 | 64 | 2.0 | 10.0 | 0.00 | 0.00 | 0.00 | 61 | 1017.9 |
| 20260830162533 | 89 | 117 | 1.0 | 10.0 | 0.00 | 0.00 | 0.00 | 61 | 1017.8 |
| 20260830162033 | 88 | 136 | 5.0 | 12.0 | 0.00 | 0.00 | 0.00 | 65 | 1017.9 |
| 20260830161635 | 88 | 72 | 4.0 | 12.0 | 0.00 | 0.00 | 0.00 | 65 | 1017.8 |
| 20260830161033 | 87 | 161 | 5.0 | 12.0 | 0.00 | 0.00 | 0.00 | 67 | 1017.9 |
| 20260830160533 | 85 | 145 | 3.0 | 12.0 | 0.00 | 0.00 | 0.00 | 67 | 1017.9 |
| 20260830160100 | 86 | 144 | 4.0 | 12.0 | 0.00 | 0.00 | 0.00 | 68 | 1017.9 |
| 20260830155534 | 86 | 139 | 4.0 | 13.0 | 0.00 | 0.00 | 0.00 | 66 | 1017.9 |
| 20260830155036 | 87 | 147 | 5.0 | 13.0 | 0.00 | 0.00 | 0.00 | 66 | 1017.9 |
| 20260830154552 | 87 | 137 | 5.0 | 12.0 | 0.00 | 0.00 | 0.00 | 68 | 1017.8 |
| 20260830154033 | 85 | 155 | 3.0 | 8.0 | 0.00 | 0.00 | 0.00 | 71 | 1017.8 |
| 20260830153535 | 84 | 211 | 2.0 | 10.0 | 0.00 | 0.00 | 0.00 | 72 | 1017.8 |
| 20260830153108 | 83 | 172 | 5.0 | 10.0 | 0.00 | 0.00 | 0.00 | 73 | 1017.8 |
| 20260830152532 | 84 | 234 | 2.0 | 11.0 | 0.00 | 0.00 | 0.00 | 72 | 1017.9 |
| 20260830152033 | 83 | 224 | 6.0 | 11.0 | 0.00 | 0.00 | 0.00 | 76 | 1017.8 |
| 20260830151558 | 82 | 225 | 5.0 | 10.0 | 0.00 | 0.00 | 0.00 | 76 | 1017.7 |
| 20260830151036 | 81 | 187 | 5.0 | 10.0 | 0.00 | 0.00 | 0.00 | 78 | 1017.8 |
| 20260830150535 | 81 | 193 | 3.0 | 10.0 | 0.00 | 0.00 | 0.00 | 78 | 1017.8 |
| 20260830150100 | 82 | 211 | 5.0 | 11.0 | 0.00 | 0.00 | 0.00 | 77 | 1017.8 |
| 20260830145535 | 82 | 211 | 8.0 | 11.0 | 0.00 | 0.00 | 0.00 | 76 | 1017.9 |
| 20260830145032 | 81 | 116 | 2.0 | 8.0 | 0.00 | 0.00 | 0.00 | 80 | 1017.8 |
| 20260830144607 | 81 | 221 | 3.0 | 10.0 | 0.00 | 0.00 | 0.00 | 80 | 1017.9 |
| 20260830144032 | 82 | 172 | 4.0 | 10.0 | 0.00 | 0.00 | 0.00 | 78 | 1018.0 |
| 20260830143533 | 82 | 126 | 6.0 | 11.0 | 0.00 | 0.00 | 0.00 | 80 | 1017.8 |
| 20260830143050 | 82 | 167 | 6.0 | 11.0 | 0.00 | 0.00 | 0.00 | 80 | 1017.9 |
| 20260830142533 | 81 | 158 | 4.0 | 8.0 | 0.00 | 0.00 | 0.00 | 82 | 1017.8 |
| 20260830142033 | 80 | 182 | 4.0 | 8.0 | 0.00 | 0.00 | 0.00 | 82 | 1017.8 |
| 20260830141602 | 80 | 197 | 2.0 | 9.0 | 0.00 | 0.00 | 0.00 | 85 | 1017.7 |
| 20260830141035 | 80 | 191 | 3.0 | 9.0 | 0.00 | 0.00 | 0.00 | 85 | 1017.7 |
| 20260830140538 | 79 | 171 | 3.0 | 7.0 | 0.00 | 0.00 | 0.00 | 87 | 1017.7 |
| 20260830140100 | 78 | 230 | 2.0 | 6.0 | 0.00 | 0.00 | 0.00 | 87 | 1017.7 |
| 20260830135534 | 78 | 126 | 3.0 | 6.0 | 0.00 | 0.00 | 0.00 | 89 | 1017.7 |
| 20260830135037 | 78 | 166 | 2.0 | 7.0 | 0.00 | 0.00 | 0.00 | 91 | 1017.6 |
| 20260830134554 | 77 | 136 | 2.0 | 8.0 | 0.00 | 0.00 | 0.00 | 93 | 1017.6 |
| 20260830134033 | 76 | 111 | 3.0 | 8.0 | 0.00 | 0.00 | 0.00 | 93 | 1017.6 |
| 20260830133533 | 76 | 110 | 3.0 | 6.0 | 0.00 | 0.00 | 0.00 | 93 | 1017.6 |
| 20260830133110 | 76 | 122 | 1.0 | 6.0 | 0.00 | 0.00 | 0.00 | 93 | 1017.5 |
| 20260830132532 | 75 | 170 | 1.0 | 5.0 | 0.00 | 0.00 | 0.00 | 93 | 1017.5 |
| 20260830132035 | 75 | 129 | 2.0 | 5.0 | 0.00 | 0.00 | 0.00 | 93 | 1017.5 |
| 20260830131558 | 75 | 112 | 1.0 | 5.0 | 0.00 | 0.00 | 0.00 | 92 | 1017.4 |
| 20260830131036 | 75 | 133 | 2.0 | 4.0 | 0.00 | 0.00 | 0.00 | 92 | 1017.5 |
| 20260830130535 | 74 | 0 | 0.0 | 2.0 | 0.00 | 0.00 | 0.00 | 92 | 1017.4 |
| 20260830130059 | 74 | 0 | 0.0 | 2.0 | 0.00 | 0.00 | 0.00 | 92 | 1017.2 |
| 20260830125533 | 74 | 139 | 0.0 | 2.0 | 0.00 | 0.00 | 0.00 | 92 | 1017.1 |
| 20260830125033 | 74 | 139 | 0.0 | 2.0 | 0.00 | 0.00 | 0.00 | 92 | 1017.1 |
| 20260830124556 | 74 | 0 | 0.0 | 2.0 | 0.00 | 0.00 | 0.00 | 92 | 1017.1 |
| 20260830124033 | 74 | 139 | 0.0 | 2.0 | 0.00 | 0.00 | 0.00 | 91 | 1017.1 |
| 20260830123534 | 74 | 0 | 0.0 | 0.0 | 0.00 | 0.00 | 0.00 | 91 | 1017.0 |
| 20260830123108 | 74 | 0 | 0.0 | 0.0 | 0.00 | 0.00 | 0.00 | 91 | 1017.0 |
| 20260830122536 | 74 | 0 | 0.0 | 2.0 | 0.00 | 0.00 | 0.00 | 91 | 1017.0 |
| 20260830122035 | 74 | 0 | 0.0 | 2.0 | 0.00 | 0.00 | 0.00 | 91 | 1017.0 |
| 20260830121601 | 74 | 0 | 0.0 | 2.0 | 0.00 | 0.00 | 0.00 | 91 | 1016.8 |
| 20260830121033 | 74 | 0 | 0.0 | 0.0 | 0.00 | 0.00 | 0.00 | 91 | 1016.8 |
| 20260830120533 | 74 | 0 | 0.0 | 0.0 | 0.00 | 0.00 | 0.00 | 91 | 1017.0 |
| 20260830120058 | 74 | 0 | 0.0 | 2.0 | 0.00 | 0.00 | 0.00 | 91 | 1017.0 |
| 20260830115533 | 74 | 0 | 0.0 | 2.0 | 0.00 | 0.00 | 0.00 | 91 | 1017.0 |
| 20260830115033 | 74 | 0 | 0.0 | 2.0 | 0.00 | 0.00 | 0.00 | 91 | 1017.0 |
| 20260830114610 | 74 | 0 | 0.0 | 1.0 | 0.00 | 0.00 | 0.00 | 91 | 1017.0 |
| 20260830114033 | 74 | 139 | 0.0 | 1.0 | 0.00 | 0.00 | 0.00 | 91 | 1017.0 |
| 20260830113533 | 74 | 0 | 0.0 | 2.0 | 0.00 | 0.00 | 0.00 | 91 | 1016.8 |
| 20260830113051 | 74 | 0 | 0.0 | 3.0 | 0.00 | 0.00 | 0.00 | 91 | 1016.9 |
| 20260830112535 | 74 | 0 | 0.0 | 4.0 | 0.00 | 0.00 | 0.00 | 91 | 1016.9 |
| 20260830112034 | 74 | 139 | 1.0 | 4.0 | 0.00 | 0.00 | 0.00 | 90 | 1016.8 |
| 20260830111601 | 74 | 139 | 0.0 | 1.0 | 0.00 | 0.00 | 0.00 | 90 | 1016.8 |
| 20260830111036 | 73 | 0 | 0.0 | 3.0 | 0.00 | 0.00 | 0.00 | 90 | 1016.9 |
| 20260830110538 | 73 | 139 | 0.0 | 4.0 | 0.00 | 0.00 | 0.00 | 90 | 1017.0 |
| 20260830110100 | 73 | 139 | 1.0 | 4.0 | 0.00 | 0.00 | 0.00 | 90 | 1016.9 |
| 20260830105534 | 73 | 139 | 2.0 | 4.0 | 0.00 | 0.00 | 0.00 | 90 | 1016.9 |
| 20260830105034 | 73 | 139 | 1.0 | 4.0 | 0.00 | 0.00 | 0.00 | 90 | 1016.9 |
| 20260830104609 | 73 | 139 | 1.0 | 4.0 | 0.00 | 0.00 | 0.00 | 90 | 1016.7 |
| 20260830104036 | 73 | 139 | 1.0 | 4.0 | 0.00 | 0.00 | 0.00 | 90 | 1016.7 |
| 20260830103534 | 73 | 0 | 0.0 | 4.0 | 0.00 | 0.00 | 0.00 | 90 | 1016.9 |
| 20260830103119 | 73 | 139 | 0.0 | 0.0 | 0.00 | 0.00 | 0.00 | 90 | 1016.7 |
| 20260830102534 | 73 | 0 | 0.0 | 0.0 | 0.00 | 0.00 | 0.00 | 89 | 1016.6 |
| 20260830102034 | 72 | 0 | 0.0 | 0.0 | 0.00 | 0.00 | 0.00 | 89 | 1016.7 |
| 20260830101559 | 72 | 0 | 0.0 | 1.0 | 0.00 | 0.00 | 0.00 | 89 | 1016.8 |
| 20260830101033 | 72 | 0 | 0.0 | 1.0 | 0.00 | 0.00 | 0.00 | 88 | 1016.7 |
| 20260830100533 | 72 | 0 | 0.0 | 2.0 | 0.00 | 0.00 | 0.00 | 88 | 1016.8 |
| 20260830100108 | 72 | 0 | 0.0 | 2.0 | 0.00 | 0.00 | 0.00 | 87 | 1016.8 |
| 20260830095533 | 71 | 0 | 0.0 | 2.0 | 0.00 | 0.00 | 0.00 | 87 | 1016.8 |
| 20260830095035 | 71 | 0 | 0.0 | 2.0 | 0.00 | 0.00 | 0.00 | 86 | 1016.9 |
| 20260830094550 | 71 | 0 | 1.0 | 2.0 | 0.00 | 0.00 | 0.00 | 86 | 1016.8 |
| 20260830094034 | 71 | 0 | 0.0 | 1.0 | 0.00 | 0.00 | 0.00 | 85 | 1016.7 |
| 20260830093535 | 71 | 0 | 0.0 | 1.0 | 0.00 | 0.00 | 0.00 | 84 | 1016.9 |
| 20260830093105 | 71 | 0 | 0.0 | 1.0 | 0.00 | 0.00 | 0.00 | 84 | 1016.9 |
| 20260830092533 | 72 | 0 | 0.0 | 0.0 | 0.00 | 0.00 | 0.00 | 84 | 1016.8 |
| 20260830092033 | 72 | 0 | 0.0 | 1.0 | 0.00 | 0.00 | 0.00 | 84 | 1016.9 |
| 20260830091600 | 72 | 0 | 0.0 | 1.0 | 0.00 | 0.00 | 0.00 | 84 | 1016.9 |
| 20260830091034 | 72 | 0 | 0.0 | 1.0 | 0.00 | 0.00 | 0.00 | 83 | 1016.9 |
| 20260830090536 | 72 | 0 | 0.0 | 1.0 | 0.00 | 0.00 | 0.00 | 83 | 1016.8 |
| 20260830090057 | 72 | 0 | 0.0 | 1.0 | 0.00 | 0.00 | 0.00 | 82 | 1016.8 |
| 20260830085533 | 72 | 0 | 0.0 | 1.0 | 0.00 | 0.00 | 0.00 | 82 | 1016.8 |
| 20260830085039 | 73 | 0 | 0.0 | 0.0 | 0.00 | 0.00 | 0.00 | 82 | 1016.7 |
| 20260830084558 | 73 | 0 | 0.0 | 0.0 | 0.00 | 0.00 | 0.00 | 82 | 1016.7 |
| 20260830084032 | 73 | 0 | 0.0 | 0.0 | 0.00 | 0.00 | 0.00 | 81 | 1016.7 |
| 20260830083532 | 73 | 0 | 0.0 | 0.0 | 0.00 | 0.00 | 0.00 | 81 | 1016.6 |
| 20260830083059 | 73 | 0 | 0.0 | 0.0 | 0.00 | 0.00 | 0.00 | 81 | 1016.7 |
| 20260830082532 | 74 | 0 | 0.0 | 0.0 | 0.00 | 0.00 | 0.00 | 80 | 1016.7 |
| 20260830082034 | 74 | 0 | 0.0 | 1.0 | 0.00 | 0.00 | 0.00 | 80 | 1016.8 |
| 20260830081559 | 74 | 0 | 0.0 | 1.0 | 0.00 | 0.00 | 0.00 | 80 | 1016.9 |
| 20260830081033 | 74 | 0 | 0.0 | 1.0 | 0.00 | 0.00 | 0.00 | 80 | 1017.0 |
| 20260830080533 | 75 | 0 | 0.0 | 0.0 | 0.00 | 0.00 | 0.00 | 79 | 1016.9 |
| 20260830080104 | 75 | 0 | 0.0 | 0.0 | 0.00 | 0.00 | 0.00 | 79 | 1017.0 |
| 20260830075534 | 75 | 0 | 0.0 | 0.0 | 0.00 | 0.00 | 0.00 | 79 | 1017.1 |
| 20260830075035 | 76 | 0 | 0.0 | 1.0 | 0.00 | 0.00 | 0.00 | 78 | 1017.1 |
| 20260830074557 | 76 | 0 | 0.0 | 1.0 | 0.00 | 0.00 | 0.00 | 78 | 1017.1 |
| 20260830074033 | 76 | 0 | 0.0 | 0.0 | 0.00 | 0.00 | 0.00 | 78 | 1017.0 |
| 20260830073535 | 76 | 0 | 0.0 | 0.0 | 0.00 | 0.00 | 0.00 | 78 | 1017.1 |
| 20260830073059 | 77 | 0 | 0.0 | 1.0 | 0.00 | 0.00 | 0.00 | 78 | 1017.0 |
| 20260830072535 | 77 | 0 | 0.0 | 1.0 | 0.00 | 0.00 | 0.00 | 78 | 1017.1 |
| 20260830072034 | 77 | 0 | 0.0 | 2.0 | 0.00 | 0.00 | 0.00 | 78 | 1017.0 |
| 20260830071620 | 77 | 139 | 0.0 | 2.0 | 0.00 | 0.00 | 0.00 | 77 | 1017.0 |
| 20260830071033 | 77 | 139 | 0.0 | 4.0 | 0.00 | 0.00 | 0.00 | 78 | 1017.0 |
| 20260830070630 | 78 | 0 | 0.0 | 4.0 | 0.00 | 0.00 | 0.00 | 77 | 1017.0 |
| 20260830070100 | 78 | 139 | 1.0 | 5.0 | 0.00 | 0.00 | 0.00 | 77 | 1017.0 |
| 20260830065532 | 78 | 139 | 1.0 | 6.0 | 0.00 | 0.00 | 0.00 | 77 | 1017.1 |
| 20260830065035 | 78 | 153 | 3.0 | 7.0 | 0.00 | 0.00 | 0.00 | 77 | 1017.0 |
| 20260830064600 | 78 | 138 | 2.0 | 7.0 | 0.00 | 0.00 | 0.00 | 77 | 1016.9 |
| 20260830064036 | 78 | 145 | 3.0 | 9.0 | 0.00 | 0.00 | 0.00 | 77 | 1017.0 |
| 20260830063536 | 78 | 155 | 4.0 | 9.0 | 0.00 | 0.00 | 0.00 | 76 | 1016.9 |
| 20260830063101 | 78 | 148 | 4.0 | 8.0 | 0.00 | 0.00 | 0.00 | 76 | 1017.0 |
| 20260830062533 | 79 | 144 | 4.0 | 11.0 | 0.00 | 0.00 | 0.00 | 76 | 1017.0 |
| 20260830062033 | 79 | 149 | 6.0 | 11.0 | 0.00 | 0.00 | 0.00 | 75 | 1017.0 |
| 20260830061601 | 79 | 172 | 6.0 | 11.0 | 0.00 | 0.00 | 0.00 | 75 | 1016.8 |
| 20260830061033 | 79 | 167 | 5.0 | 10.0 | 0.00 | 0.00 | 0.00 | 74 | 1016.8 |
| 20260830060533 | 79 | 145 | 5.0 | 9.0 | 0.00 | 0.00 | 0.00 | 74 | 1016.8 |
| 20260830060057 | 79 | 160 | 3.0 | 10.0 | 0.00 | 0.00 | 0.00 | 73 | 1016.9 |
| 20260830055535 | 79 | 153 | 4.0 | 10.0 | 0.00 | 0.00 | 0.00 | 72 | 1016.9 |
| 20260830055033 | 80 | 143 | 5.0 | 10.0 | 0.00 | 0.00 | 0.00 | 72 | 1016.9 |
| 20260830054600 | 80 | 116 | 5.0 | 10.0 | 0.00 | 0.00 | 0.00 | 71 | 1016.9 |
| 20260830054034 | 80 | 141 | 6.0 | 10.0 | 0.00 | 0.00 | 0.00 | 71 | 1016.8 |
| 20260830053533 | 80 | 150 | 5.0 | 11.0 | 0.00 | 0.00 | 0.00 | 71 | 1017.0 |
| 20260830053058 | 80 | 147 | 6.0 | 11.0 | 0.00 | 0.00 | 0.00 | 70 | 1016.8 |
| 20260830052534 | 81 | 139 | 4.0 | 12.0 | 0.00 | 0.00 | 0.00 | 70 | 1017.0 |
| 20260830052034 | 81 | 122 | 5.0 | 12.0 | 0.00 | 0.00 | 0.00 | 69 | 1017.0 |
| 20260830051551 | 81 | 141 | 6.0 | 12.0 | 0.00 | 0.00 | 0.00 | 69 | 1016.9 |
| 20260830051036 | 81 | 172 | 6.0 | 15.0 | 0.00 | 0.00 | 0.00 | 69 | 1016.8 |
| 20260830050535 | 81 | 140 | 7.0 | 16.0 | 0.00 | 0.00 | 0.00 | 69 | 1016.7 |
| 20260830050058 | 81 | 158 | 9.0 | 16.0 | 0.00 | 0.00 | 0.00 | 68 | 1016.7 |
| 20260830045534 | 81 | 159 | 7.0 | 13.0 | 0.00 | 0.00 | 0.00 | 68 | 1016.6 |
| 20260830045038 | 81 | 135 | 7.0 | 13.0 | 0.00 | 0.00 | 0.00 | 67 | 1016.7 |
| 20260830044639 | 82 | 179 | 5.0 | 12.0 | 0.00 | 0.00 | 0.00 | 67 | 1016.7 |
| 20260830044033 | 82 | 160 | 5.0 | 12.0 | 0.00 | 0.00 | 0.00 | 66 | 1016.8 |
| 20260830043535 | 82 | 149 | 6.0 | 11.0 | 0.00 | 0.00 | 0.00 | 66 | 1016.8 |
| 20260830043052 | 82 | 130 | 6.0 | 12.0 | 0.00 | 0.00 | 0.00 | 65 | 1016.8 |
| 20260830042532 | 82 | 135 | 5.0 | 12.0 | 0.00 | 0.00 | 0.00 | 65 | 1016.8 |
| 20260830042035 | 82 | 160 | 6.0 | 12.0 | 0.00 | 0.00 | 0.00 | 65 | 1016.8 |
| 20260830041607 | 82 | 137 | 7.0 | 13.0 | 0.00 | 0.00 | 0.00 | 64 | 1016.7 |
| 20260830041033 | 83 | 143 | 7.0 | 13.0 | 0.00 | 0.00 | 0.00 | 64 | 1016.7 |
| 20260830040533 | 83 | 160 | 6.0 | 11.0 | 0.00 | 0.00 | 0.00 | 64 | 1016.6 |
| 20260830035534 | 83 | 153 | 5.0 | 9.0 | 0.00 | 0.01 | 0.00 | 64 | 1016.5 |
| 20260830035038 | 83 | 153 | 5.0 | 10.0 | 0.00 | 0.01 | 0.00 | 63 | 1016.5 |
| 20260830034605 | 83 | 166 | 4.0 | 10.0 | 0.00 | 0.01 | 0.00 | 63 | 1016.5 |
| 20260830034034 | 83 | 120 | 4.0 | 11.0 | 0.00 | 0.01 | 0.00 | 63 | 1016.4 |
| 20260830033533 | 84 | 157 | 5.0 | 11.0 | 0.00 | 0.01 | 0.00 | 63 | 1016.4 |
| 20260830033100 | 84 | 153 | 5.0 | 10.0 | 0.00 | 0.01 | 0.00 | 63 | 1016.4 |
| 20260830032533 | 84 | 162 | 5.0 | 10.0 | 0.00 | 0.01 | 0.00 | 63 | 1016.3 |
| 20260830032033 | 84 | 155 | 5.0 | 12.0 | 0.00 | 0.01 | 0.00 | 63 | 1016.2 |
| 20260830031608 | 84 | 145 | 6.0 | 12.0 | 0.00 | 0.01 | 0.00 | 63 | 1016.1 |
| 20260830031033 | 84 | 162 | 5.0 | 11.0 | 0.00 | 0.01 | 0.00 | 63 | 1016.1 |
| 20260830030535 | 84 | 147 | 6.0 | 11.0 | 0.00 | 0.01 | 0.00 | 63 | 1016.1 |
| 20260830030101 | 84 | 174 | 5.0 | 15.0 | 0.00 | 0.01 | 0.00 | 64 | 1016.0 |
| 20260830025534 | 84 | 133 | 6.0 | 15.0 | 0.00 | 0.15 | 0.00 | 64 | 1016.0 |
| 20260830025034 | 84 | 134 | 4.0 | 8.0 | 0.00 | 0.15 | 0.00 | 64 | 1015.8 |
| 20260830024637 | 84 | 135 | 4.0 | 8.0 | 0.00 | 0.15 | 0.00 | 64 | 1015.8 |
| 20260830024038 | 84 | 140 | 4.0 | 7.0 | 0.00 | 0.15 | 0.00 | 64 | 1015.6 |
| 20260830023536 | 84 | 160 | 3.0 | 7.0 | 0.00 | 0.15 | 0.00 | 63 | 1015.5 |
| 20260830023058 | 84 | 143 | 3.0 | 7.0 | 0.00 | 0.15 | 0.00 | 63 | 1015.4 |
| 20260830022533 | 83 | 139 | 3.0 | 6.0 | 0.00 | 0.15 | 0.00 | 63 | 1015.3 |
| 20260830022033 | 83 | 162 | 3.0 | 8.0 | 0.00 | 0.15 | 0.00 | 62 | 1015.2 |
| 20260830021559 | 84 | 145 | 3.0 | 11.0 | 0.00 | 0.15 | 0.00 | 62 | 1015.1 |
| 20260830021033 | 84 | 145 | 5.0 | 11.0 | 0.00 | 0.15 | 0.00 | 61 | 1015.0 |
| 20260830020537 | 84 | 134 | 6.0 | 11.0 | 0.00 | 0.15 | 0.00 | 61 | 1014.9 |
| 20260830020050 | 85 | 137 | 3.0 | 10.0 | 0.00 | 0.15 | 0.00 | 62 | 1014.8 |
| 20260830015533 | 86 | 170 | 1.0 | 2.0 | 0.00 | 0.15 | 0.00 | 61 | 1014.6 |
| 20260830015033 | 86 | 170 | 0.0 | 1.0 | 0.00 | 0.15 | 0.00 | 61 | 1014.7 |
| 20260830014559 | 87 | 0 | 0.0 | 1.0 | 0.00 | 0.15 | 0.00 | 59 | 1014.7 |